Location: Presov
(49.0000°N, 21.2500°E)
Time: 13:47:10
(UTC+02:00)

Tiros 1 despin weight - Visible Passes

Search period start: 18 April 2021 00:00
Search period end: 28 April 2021 00:00
Orbit: 593 x 641 km, 48.2° (Epoch: 17 April)

Date Brightness Start Highest point End Pass type
(mag) Time Alt. Az. Time Alt. Az. Time Alt. Az.
21 Apr ? 04:26:05 10° S 04:28:39 15° SE 04:31:12 10° ESE visible
22 Apr ? 04:40:54 10° SSW 04:44:37 24° SE 04:48:17 10° E visible
23 Apr ? 03:19:13 10° SE 03:20:03 10° SE 03:20:53 10° SE visible
24 Apr ? 03:33:53 14° S 03:35:56 18° SE 03:39:06 10° E visible
25 Apr ? 03:49:22 18° SSW 03:51:56 29° SSE 03:55:54 10° E visible
26 Apr ? 02:27:46 13° SE 02:27:46 13° SE 02:29:34 10° ESE visible
26 Apr ? 04:04:48 17° SW 04:08:03 43° SSE 04:12:24 10° E visible
27 Apr ? 02:43:09 23° SE 02:43:14 23° SE 02:46:50 10° E visible
27 Apr ? 04:20:10 13° WSW 04:24:15 60° SSE 04:28:46 10° E visible
